www.pogodaiklimat.ru

Погода и климат >> Архив погоды >> Дания >> Рёмё


ПОГОДА в Рёмё

  • Прогноз погоды в Рёмё
  • Монитор погоды в Рёмё

АРХИВ ПОГОДЫ в Рёмё

Время (UTC), дата Ветер
(напр.,м/с)
 
Видим.   Явления Облачность Т
(С)
Тd
(С)
f
(%)
Тe
(С)
Тes
(С)
Комфортность P
(гПа)
Po
(гПа)
Тmin
(С)
Tmax
(С)
R
(мм)
R24
(мм)
S
(см)
19 10.06 СВ 7 30 км 1/0
[]
+15.8 +11.1 74 +14 +14 1015.2 1014.1
20 10.06 СВ 7 30 км 1/0
[]
+15.2 +10.9 75 +13 +13 1015.0 1013.9
21 10.06 СВ 7 30 км 4/0
[]
+14.6 +10.7 77 +13 +13 1014.3 1013.2
22 10.06 СВ 7 30 км 9/9 1500 м
[]
+14.2 +10.7 79 +12 +12 1014.6 1013.5
23 10.06 СВ 7 21 км слаб. морось {дождь} 9/9 1110 м
[]
+13.7 +10.4 80 +11 +11 1014.3 1013.2
00 11.06 СВ 8 27 км слаб. ливневой дождь 9/9 1470 м
[]
+13.4 +10.3 81 +11 +11 1013.1 1012.1
01 11.06 СВ 7 28 км слаб. ливневой дождь 9/0
[]
+13.2 +10.0 81 +11 +11 1012.9 1011.8
02 11.06 СВ 6 30 км {ливн. осадки} 9/9 1140 м
[]
+13.4 +9.9 79 +11 +11 1012.6 1011.6
03 11.06 СВ 6 35 км {ливн. осадки} 9/9 1080 м
[]
+13.5 +9.8 78 +11 +11 1011.9 1010.8
04 11.06 СВ 6 35 км {ливн. осадки, дождь} 9/9 1020 м
[]
+13.5 +10.5 82 +11 +11 1011.7 1010.6
05 11.06 СВ 6 30 км 9/9 1020 м
[]
+14.0 +11.3 84 +12 +12 1011.4 1010.4
06 11.06 СВ 6 30 км {ливн. осадки, дождь} 9/9 1080 м
[]
+14.7 +12.1 84 +13 +13 1011.2 1010.1 +13.2 +16.3
07 11.06 СВ 6 30 км 9/9 1500 м
[]
+16.1 +12.8 81 +15 +15 1010.9 1009.8
08 11.06 СВ 5 30 км 9/0 2000 м
[]
+16.8 +13.3 80 +16 +19 1010.7 1009.6
09 11.06 В 3 7000 м слаб. ливневой дождь 9/9 500 м
[]
+15.3 +14.2 93 +15 +16 1010.9 1009.9
10 11.06 В 5 8000 м дождь {ливн. осадки} 9/9 400 м
[]
+15.2 +13.9 92 +14 +14 1011.2 1010.1
11 11.06 СВ 3 8000 м слаб. дождь 9/9 660 м
[]
+15.6 +15.1 97 +15 +16 1010.7 1009.6
12 11.06 В 6 17 км в посл. час морось {ливн. осадки, дождь} 9/9 180 м
[]
+16.5 +15.3 93 +15 +16 1010.4 1009.4
13 11.06 В 5 26 км 9/9 240 м
[]
+16.4 +15.0 91 +16 +16 1010.7 1009.6
14 11.06 В 4 17 км 9/9 240 м
[]
+16.3 +15.3 94 +16 +17 1010.6 1009.6
15 11.06 ЮВ 4 14 км 10/10 210 м
[]
+16.8 +15.8 94 +16 +16 1011.0 1009.9
16 11.06 Ю 4 15 км 9/9 300 м
[]
+17.5 +15.5 88 +17 +18 1010.9 1009.8
17 11.06 Ю 4 15 км 9/9 300 м
[]
+18.0 +16.0 88 +18 +18 1011.4 1010.3
18 11.06 Ю 5 9000 м дымка 9/9 240 м
[]
+16.8 +15.5 92 +16 +16 1011.7 1010.6 +14.6 +18.2
19 11.06 Ю 5 13 км 9/9 180 м
[]
+16.1 +14.9 93 +15 +15 1012.2 1011.2
20 11.06 ЮЗ 4 10 км 10/10 90 м
[]
+14.9 +14.2 96 +14 +14 1012.8 1011.7
21 11.06 Ю 3 11 км {дымка} 9/9 180 м
[]
+14.9 +14.0 94 +14 +14 1013.2 1012.1
22 11.06 штиль 0 7000 м дымка 6/6 180 м
[]
+14.7 +13.9 95 +14 +14 1012.9 1011.9
23 11.06 штиль 0 7000 м дымка 4/4 450 м
[]
+14.0 +13.6 97 +14 +14 1013.0 1011.9
00 12.06 штиль 0 500 м туман {дымка} 9/9 150 м
[]
+13.6 +13.3 98 +13 +13 1013.3 1012.2
01 12.06 В 4 3100 м в посл. час туман 9/9 90 м
[]
+13.6 +13.3 98 +12 +12 1013.8 1012.7
02 12.06 ЮВ 2 2600 м дымка 9/0
[]
+13.1 +12.8 98 +13 +13 1013.0 1012.0
03 12.06 штиль 0 2800 м слаб. морось {дождь} 9/9 1410 м
[]
+13.3 +13.1 99 +13 +13 1012.2 1011.2
04 12.06 СВ 3 5000 м дымка {ливн. осадки} 10/10 1260 м
[]
+14.0 +13.7 98 +13 +13 1012.0 1010.9
05 12.06 С 2 4900 м дымка 9/9 1170 м
[]
+14.0 +13.6 97 +13 +14 1011.0 1009.9
06 12.06 СЗ 5 8000 м дымка {ливн. осадки, дождь} 1/1 1500 м
[]
+15.1 +14.1 94 +14 +15 1011.0 1009.9 +12.4 +16.9
07 12.06 СВ 5 6000 м дымка 9/9 270 м
[]
+16.3 +15.2 93 +15 +16 1011.4 1010.3
08 12.06 СВ 5 10 км 10/10 300 м
[]
+17.3 +15.7 90 +17 +17 1011.2 1010.1
09 12.06 В 5 9000 м дымка 10/10 180 м
[]
+16.9 +15.8 93 +16 +16 1011.3 1010.2
10 12.06 В 5 20 км 9/9 240 м
[]
+17.8 +16.0 89 +17 +18 1010.6 1009.5
11 12.06 В 5 23 км 9/9 270 м
[]
+18.5 +15.8 84 +19 +20 1010.2 1009.1
12 12.06 В 5 23 км {дымка} 10/10 400 м
[]
+19.3 +16.3 83 +21 +21 комфорт 1009.4 1008.3
13 12.06 В 5 21 км 9/9 480 м
[]
+19.2 +16.5 84 +21 +21 комфорт 1008.5 1007.4
14 12.06 В 7 23 км 9/9 480 м
[]
+19.1 +16.0 82 +20 +20 1008.4 1007.4
15 12.06 В 7 17 км 10/10 360 м
[]
+18.1 +15.8 86 +18 +18 1008.0 1006.9
16 12.06 В 5 13 км слаб. дождь 9/9 330 м
[]
+17.7 +15.8 89 +17 +18 1007.8 1006.7
17 12.06 ЮВ 5 10 км слаб. ливневой дождь 9/9 400 м
[]
+16.8 +15.6 93 +16 +16 1008.0 1006.9
18 12.06 ЮВ 4 4100 м ливневой дождь 9/9 240 м
[]
+16.3 +15.7 96 +16 +16 1007.7 1006.7 +15.2 +19.4
19 12.06 В 7 8000 м слаб. дождь 9/9 1110 м
[]
+15.7 +15.1 96 +14 +14 1005.5 1004.5
20 12.06 Ю 6 12 км в посл. час морось {ливн. осадки, дождь} 9/9 180 м
[]
+15.8 +15.2 96 +14 +14 1007.1 1006.0
21 12.06 Ю 6 8000 м дымка {ливн. осадки, дождь} 10/10 120 м
[]
+16.5 +16.0 97 +15 +15 1007.5 1006.4
22 12.06 ЮЗ 9 15 км 9/9 180 м
[]
+15.9 +14.2 90 +14 +14 1007.9 1006.9
23 12.06 ЮЗ 9 13 км 6/6 1500 м
[]
+15.2 +13.4 89 +13 +13 1007.8 1006.7
00 13.06 ЮЗ 6
{13}
10 км {ливн. осадки, дождь} 1/1 540 м
[]
+14.3 +12.7 90 +12 +12 1008.5 1007.4
01 13.06 ЮЗ 9 16 км 4/4 480 м
[]
+14.3 +11.7 84 +12 +12 1008.5 1007.5
02 13.06 ЮЗ 9 26 км 4/4 400 м
[]
+13.3 +10.9 85 +10 +10 1008.6 1007.5
03 13.06 ЮЗ 7 26 км 6/6 400 м
[]
+13.3 +11.2 87 +11 +11 1009.3 1008.2
04 13.06 ЮЗ 6 28 км 1/1 480 м
[]
+13.3 +11.0 86 +11 +11 1009.2 1008.1
05 13.06 Ю 4 14 км ясно +14.2 +12.0 87 +13 +14 1009.9 1008.9
06 13.06 Ю 5 15 км ясно +15.7 +12.4 81 +14 +16 1010.1 1009.1 +12.8 +16.6
07 13.06 Ю 7 29 км 1/0
[]
+16.8 +10.7 67 +16 +18 1010.2 1009.1
08 13.06 Ю 8 30 км 1/1 840 м
[]
+17.9 +11.2 65 +17 +19 1010.1 1009.0
09 13.06 Ю 8 27 км ясно +17.8 +11.1 65 +17 +19 1010.3 1009.2
10 13.06 Ю 8 28 км 1/1 870 м
[]
+17.7 +11.6 67 +17 +19 1010.6 1009.5
11 13.06 Ю 9 26 км 4/4 870 м
[]
+18.1 +11.4 65 +17 +18 1011.1 1010.0
12 13.06 Ю 9 27 км 4/4 930 м
[]
+18.6 +11.6 64 +18 +19 1011.4 1010.4
13 13.06 Ю 8 30 км 1/1 1020 м
[]
+19.0 +10.5 58 +19 +22 1011.9 1010.9
14 13.06 Ю 8 30 км 1/1 1020 м
[]
+18.8 +10.1 57 +19 +21 1012.0 1011.0
15 13.06 Ю 8 35 км ясно +18.7 +9.5 55 +18 +20 1012.2 1011.2
16 13.06 ЮЗ 5 30 км ясно +19.1 +11.0 59 +20 +23 1012.0 1010.9
17 13.06 Ю 5 40 км 9/0 2000 м
[]
+18.9 +9.7 55 +19 +20 1012.1 1011.0
18 13.06 З 3 35 км 9/0
[]
+17.7 +10.4 62 +18 +18 1012.2 1011.1 +15.6 +19.7
19 13.06 штиль 0 40 км 6/0
[]
+18.3 +10.3 60 +19 +19 1012.5 1011.4
20 13.06 ЮВ 3 45 км 4/0
[]
+15.4 +10.4 72 +15 +15 1012.5 1011.5
21 13.06 ЮВ 4 35 км 9/0
[]
+15.1 +11.9 81 +14 +14 1012.7 1011.6
22 13.06 Ю 3 45 км в посл. час дождь {ливн. осадки} 9/9 1500 м
[]
+16.2 +12.1 77 +16 +16 1012.9 1011.8
23 13.06 Ю 4 35 км 4/0
[]
+14.9 +11.0 77 +14 +14 1013.1 1012.0
00 14.06 ЮВ 5 35 км {ливн. осадки, дождь} 1/0
[]
+14.4 +11.9 85 +13 +13 1013.4 1012.3
01 14.06 Ю 5 40 км 9/9 1500 м
[]
+15.3 +11.1 76 +14 +14 1013.7 1012.6
02 14.06 Ю 6 40 км 6/6 1500 м
[]
+15.3 +10.1 71 +14 +14 1013.9 1012.9
03 14.06 Ю 4 45 км 1/0
[]
+14.3 +10.8 79 +13 +13 1014.1 1013.1
04 14.06 ЮВ 4 29 км 1/0
[]
+13.2 +11.7 91 +11 +12 1014.6 1013.5
05 14.06 Ю 5 35 км 9/0
[]
+14.9 +12.1 83 +14 +14 1015.0 1014.0
06 14.06 ЮВ 5 35 км ясно +15.8 +11.7 77 +15 +17 1015.4 1014.3 +13.1 +18.3
07 14.06 Ю 7 30 км 1/0 2000 м
[]
+17.5 +12.2 71 +17 +19 1015.6 1014.5
08 14.06 Ю 8 35 км 1/1 1500 м
[]
+17.8 +12.7 72 +17 +19 1016.2 1015.2
09 14.06 Ю 6 30 км 1/1 1500 м
[]
+19.1 +12.1 64 +20 +24 1016.2 1015.2
10 14.06 Ю 5 29 км ясно +19.9 +12.0 60 +21 +29 комфорт 1016.3 1015.3
11 14.06 Ю 4 35 км ясно +20.6 +10.7 53 +23 +34 комфорт 1016.4 1015.3
12 14.06 З 5 25 км слаб. ливневой дождь 6/6 500 м
[]
+18.2 +12.7 70 +18 +22 1016.4 1015.4
13 14.06 СЗ 4 30 км слаб. ливневой дождь 9/9 800 м
[]
+17.7 +12.9 73 +18 +19 1016.6 1015.5
14 14.06 СЗ 6 12 км слаб. ливневой дождь 9/9 960 м
[]
+15.2 +12.8 86 +14 +14 1017.0 1016.0
15 14.06 В 4 19 км в посл. час дождь {ливн. осадки} 6/0
[]
+17.6 +14.3 81 +17 +22 1015.9 1014.8
16 14.06 СВ 4 30 км ясно +18.8 +13.3 70 +20 +23 1015.5 1014.4
17 14.06 В 5 30 км ясно +19.3 +14.0 71 +21 +22 комфорт 1015.7 1014.7
18 14.06 ЮВ 3 35 км {ливн. осадки} ясно +19.2 +14.9 76 +21 +22 комфорт 1015.9 1014.9 +14.9 +21.4
19 14.06 ЮВ 4 35 км ясно +18.2 +15.3 83 +18 +19 1016.2 1015.2
20 14.06 В 4 30 км ясно +16.3 +14.4 89 +16 +16 1016.4 1015.3
21 14.06 В 3 29 км ясно +15.5 +14.1 91 +15 +15 1016.2 1015.2
22 14.06 В 4 17 км 1/0
[]
+15.3 +14.4 94 +14 +14 1015.8 1014.7
23 14.06 В 5 14 км ясно +15.2 +14.6 96 +14 +14 1016.0 1014.9
00 15.06 В 4 12 км ясно +15.2 +14.7 97 +14 +14 1015.5 1014.5
01 15.06 СВ 4 9000 м дымка 4/0
[]
+14.8 +14.4 97 +14 +14 1014.7 1013.6
02 15.06 СВ 4 6000 м дымка 1/1 1500 м
[]
+14.5 +14.0 97 +13 +13 1014.1 1013.1
03 15.06 СВ 5 8000 м дымка 6/6 1500 м
[]
+14.5 +13.9 96 +13 +13 1013.1 1012.0
04 15.06 СВ 4 9000 м дымка 1/0
[]
+14.2 +13.5 96 +13 +13 1012.9 1011.8
05 15.06 В 5 13 км 9/0
[]
+14.6 +13.7 94 +13 +14 1012.5 1011.5
06 15.06 В 4 12 км слаб. ливневой дождь 9/9 1500 м
[]
+14.9 +14.0 94 +14 +14 1012.4 1011.3 +14.1 +19.3
07 15.06 СВ 6 12 км в посл. час дождь {ливн. осадки} 9/9 1000 м
[]
+15.1 +14.3 95 +13 +14 1011.6 1010.5
08 15.06 СВ 5 13 км слаб. ливневой дождь 9/9 800 м
[]
+15.8 +14.9 94 +15 +15 1010.6 1009.5
09 15.06 В 8 15 км в посл. час дождь {ливн. осадки} 9/9 1500 м
[]
+16.6 +15.6 94 +15 +15 1010.1 1009.0
10 15.06 В 6 22 км 1/0
[]
+19.0 +17.0 88 +20 +25 1009.8 1008.8
11 15.06 В 6 21 км 1/0
[]
+20.6 +18.0 85 +24 +30 комфорт 1009.5 1008.5
12 15.06 ЮВ 8 26 км {ливн. осадки} 1/0
[]
+21.3 +16.1 72 +25 +27 комфорт 1009.6 1008.6
13 15.06 ЮВ 9 21 км 1/1 1470 м
[]
+20.4 +15.1 72 +22 +24 комфорт 1009.7 1008.7
14 15.06 ЮВ 7 16 км слаб. ливневой дождь 9/9 1440 м
[]
+18.6 +15.0 80 +19 +19 1010.2 1009.1
15 15.06 В 7 6000 м ливневой дождь 9/9 900 м
[]
+16.6 +15.2 91 +15 +16 1009.9 1008.9
16 15.06 ЮВ 4 12 км морось {ливн. осадки, дождь} 9/9 500 м
[]
+16.6 +15.4 93 +16 +16 1010.4 1009.4
17 15.06 В 3 22 км {морось} 9/9 300 м
[]
+16.6 +15.5 93 +16 +17 1010.7 1009.7
18 15.06 Ю 2 12 км {ливн. осадки, дождь} 9/9 180 м
[]
+16.5 +15.8 96 +17 +17 1011.2 1010.1 +14.9 +22.0
19 15.06 З 9 1100 м в посл. час туман {дымка} 10/10 60 м
[]
+14.3 +14.0 98 +12 +12 1011.1 1010.1
20 15.06 З 11 13 км 9/9 60 м
[]
+13.7 +13.3 97 +10 +10 1011.7 1010.6
21 15.06 З 11
{10}
27 км {туман, дымка} 9/9 150 м
[]
+14.0 +12.9 93 +11 +11 1013.0 1011.9
22 15.06 З 8 30 км 9/9 240 м
[]
+14.0 +12.7 92 +11 +11 1014.2 1013.1
23 15.06 З 7 20 км 6/6 180 м
[]
+13.5 +12.5 94 +11 +11 1014.8 1013.7
00 16.06 З 7
{10}
18 км {туман, дымка} 4/4 180 м
[]
+13.4 +12.5 94 +11 +11 1014.7 1013.6
01 16.06 З 6 29 км 1/1 300 м
[]
+12.9 +11.2 89 +10 +10 1015.3 1014.3
02 16.06 З 6 40 км 1/0
[]
+13.0 +10.6 85 +11 +11 1015.5 1014.4
03 16.06 З 5 30 км ясно +12.3 +10.3 88 +10 +10 1015.6 1014.5
04 16.06 ЮЗ 5 30 км ясно +13.0 +11.0 88 +11 +11 1015.8 1014.7
05 16.06 ЮЗ 5 40 км ясно +14.8 +12.3 85 +13 +14 1016.5 1015.4
06 16.06 ЮЗ 6 40 км ясно +15.9 +12.1 78 +15 +16 1017.0 1015.9 +12.1 +16.6
07 16.06 ЮЗ 8 28 км ясно +16.1 +13.2 83 +14 +16 1017.3 1016.2
08 16.06 ЮЗ 7 29 км ясно +16.6 +12.2 75 +15 +18 1017.7 1016.6
09 16.06 ЮЗ 6 29 км 1/1 1230 м
[]
+16.7 +12.3 75 +16 +20 1018.0 1016.9
10 16.06 ЮЗ 5 30 км 1/1 1410 м
[]
+17.4 +11.6 69 +17 +24 1018.6 1017.5
11 16.06 ЮЗ 6 29 км 1/1 1300 м
[]
+17.4 +11.5 68 +17 +22 1019.1 1018.1
12 16.06 ЮЗ 5 35 км 6/6 1050 м
[]
+18.2 +10.7 62 +18 +22 1019.1 1018.1
13 16.06 ЮЗ 8 27 км 6/6 1170 м
[]
+18.7 +11.9 65 +19 +20 1019.2 1018.2
14 16.06 ЮЗ 8 15 км 1/1 1500 м
[]
+18.1 +13.2 73 +17 +20 1019.5 1018.4
15 16.06 ЮЗ 7 20 км 9/9 480 м
[]
+17.5 +13.0 75 +17 +17 1019.7 1018.6
16 16.06 ЮЗ 4 24 км 1/1 400 м
[]
+16.8 +12.4 75 +16 +20 1019.6 1018.5
17 16.06 ЮЗ 4 30 км ясно +17.0 +12.1 73 +17 +19 1019.6 1018.6
18 16.06 ЮЗ 5 35 км ясно +16.4 +12.8 79 +16 +16 1019.8 1018.7 +15.5 +19.2
19 16.06 ЮЗ 4 35 км ясно +15.7 +12.3 80 +15 +15 1019.8 1018.8
20 16.06 ЮЗ 4 30 км ясно +13.9 +11.6 86 +13 +13 1020.0 1018.9
21 16.06 ЮЗ 3 35 км ясно +12.8 +10.7 87 +11 +11 1020.1 1019.1
22 16.06 ЮЗ 5 27 км ясно +12.4 +10.8 90 +10 +10 1020.4 1019.3
23 16.06 ЮЗ 4 24 км ясно +12.4 +11.0 91 +10 +10 1020.4 1019.3
00 17.06 Ю 4 30 км ясно +13.2 +11.4 89 +12 +12 1020.1 1019.0
01 17.06 Ю 4 29 км ясно +13.4 +11.6 89 +12 +12 1020.0 1019.0
02 17.06 ЮЗ 3 27 км 6/6 1170 м
[]
+13.1 +11.7 91 +12 +12 1020.0 1018.9
03 17.06 Ю 4 27 км 4/4 1110 м
[]
+14.4 +12.6 89 +13 +13 1020.0 1018.9
04 17.06 Ю 4 25 км ясно +15.3 +13.5 89 +14 +14 1020.0 1018.9
05 17.06 ЮЗ 5 23 км ясно +16.2 +14.0 87 +15 +16 1020.0 1018.9
06 17.06 ЮЗ 8 19 км ясно +16.8 +13.5 81 +15 +16 1020.2 1019.1 +12.0 +17.0
07 17.06 ЮЗ 8 25 км ясно +17.2 +13.0 76 +16 +17 1020.5 1019.4
08 17.06 ЮЗ 8 26 км ясно +17.8 +12.9 73 +17 +18 1020.7 1019.6
09 17.06 ЮЗ 9 30 км ясно +18.1 +12.7 71 +17 +19 1020.9 1019.9
10 17.06 ЮЗ 9 35 км ясно +18.5 +12.8 69 +18 +20 1021.1 1020.1
11 17.06 ЮЗ 7 28 км ясно +18.6 +12.7 69 +19 +23 1021.2 1020.1
12 17.06 З 6 27 км ясно +19.1 +12.1 64 +20 +27 1021.1 1020.0
13 17.06 З 5 28 км ясно +19.0 +12.6 66 +20 +28 1021.1 1020.0
14 17.06 ЮЗ 4 35 км ясно +19.6 +12.2 62 +21 +30 комфорт 1020.8 1019.7
15 17.06 ЮЗ 4 30 км ясно +20.3 +13.1 63 +23 +29 комфорт 1020.5 1019.5
17 17.06 ЮВ 4 30 км ясно +20.3 +13.5 65 +23 +25 комфорт 1019.6 1018.5
18 17.06 ЮВ 3 35 км ясно +20.2 +13.3 65 +23 +24 комфорт 1019.2 1018.2 +16.7 +20.6

 

Местоположение метеостанции Рёмё (Дания): широта 55.18 долгота 8.57 высота над уровнем моря 9 м.

В архиве по умолчанию представлена погода в Рёмё за последнюю неделю. Архивные данные за месяц целиком и за предыдущие месяцы, начиная с января 2011 года, Вы можете получить, выбрав интересующий диапазон дат из раскрывающегося списка и нажав кнопку "Ввод!".


*Определитесь, кто Вы:
робот инопланетянин человек

Внимание! Время в таблицах - всемирное. Для получения местного времени необходимо прибавить поправку, которая равна 1 ч.

Смотрите также архив погоды в соседних городах и на ближайших метеорологических станциях:

Погода в Вестер Ведстед (Дания) (14 км)
Погода в Листе (Германия) (20 км)
Погода в Эсбьерге (Дания) (39 км)
Погода в Скрыдструпе (Дания) (45 км)
Погода в Аскове (Дания) (47 км)
Погода в Леке (Германия) (49 км)
Погода на Мысе Blaavandshuk (Дания) (52 км)
Погода в Вамдрупе (Дания) (56 км)
Погода в Глюксбурге (Германия) (71 км)
Погода в Биллунде (Дания) (72 км)

Пояснения к столбцам:

Ветер - указаны скорость ветра в м/с - средняя за 10 мин, порывы в срок и между сроками (в фигурных скобках) и направление, откуда дует ветер: С - северный, СВ - северо-восточный, В - восточный, ЮВ - юго-восточный, Ю - южный, ЮЗ - юго-западный, З - западный, СЗ - северо-западный.
Видимость - горизонтальная дальность видимости в метрах или километрах. При видимости от 1 до 10 км при отсутствии осадков обычно наблюдается дымка, при ухудшении видимости до 1 км и менее - туман. В сухую погоду видимость может ухудшаться дымом, пылью или мглою.
Явления - указаны атмосферные явления, наблюдавшиеся в срок или в последний час перед сроком; фигурными скобками обозначены явления, наблюдавшиеся между сроками (за 1-3 часа до срока); квадратными скобками обозначены град или гололедные отложения с указанием их диаметра в мм.
Облачность - указаны через наклонную черту общая и нижняя облачность в баллах и высота нижней границы облаков в метрах; квадратными скобками обозначены формы облаков: Ci - перистые, Cs - перисто-слоистые, Cc - перисто-кучевые, Ac - высококучевые, As - высокослоистые, Sc - слоисто-кучевые, Ns - слоисто-дождевые, Cu - кучевые, Cb - кучево-дождевые. Подробнее классификацию облаков см. в Атласе облаков (PDF).
T - Температура воздуха - температура, измеренная на высоте 2 м над землей.
Td - Температура точки росы - температура, при понижении до которой содержащийся в воздухе водяной пар достигнет насыщения.
f - Относительная влажность воздуха - влажноcть воздуха, измеренная на высоте 2 м над землей.
Te - Эффективная температура - температура, которую ощущает одетый по сезону человек в тени. Характеристика душности погоды. При расчете учитывается влияние влажности воздуха и скорости ветра на теплоощущения человека.
Tes - Эффективная температура на солнце - температура, которую ощущает человек, с поправкой на солнечный нагрев. Характеристика знойности погоды. Зависит от высоты солнца над горизонтом, облачности и скорости ветра. Ночью, в пасмурную погоду, а также при ветре 12 м/с и более поправка равна нулю.
P - Атмосферное давление - приведенное к уровню моря атмосферное давление.
Po - Атмосферное давление - измеренное на уровне метеостанции атмосферное давление.
Tmin - Минимальная температура - минимум температуры воздуха на высоте 2 м над землей.
Tmax - Максимальная температура - максимум температуры воздуха на высоте 2 м над землей.
R - Количество осадков - Количество выпавших осадков за период времени, мм. При наведении курсора мыши на число - период времени, за который выпало указанное количество осадков.
R24 - Количество осадков - Количество выпавших осадков за 24 часа, мм.
S - Снежный покров - Высота снежного покрова, см. При наведении курсора мыши на число - состояние снежного покрова и степень покрытия местности в баллах.